K3CHZ Weather Reports


time (UTC)temp
C
wind
direction
speed
KPH
gust
KPH
rain 1hr
cm
rain 24hr
cm
rain mn
cm
humidity
%
barometer
mb
20260507115218 9 23 0.0 0.0 0.00 8.89 4.83 91 1012.7
20260507114718 9 23 0.0 0.0 0.00 8.89 4.83 90 1012.7
20260507114216 9 23 0.0 0.0 0.00 8.89 4.83 89 1012.6
20260507113716 9 23 0.0 0.0 0.00 8.89 4.83 90 1012.7
20260507113217 9 166 0.0 0.0 0.00 8.89 4.83 90 1012.7
20260507112718 9 171 0.0 0.0 0.00 8.89 4.83 90 1012.6
20260507112216 10 171 0.0 0.0 0.00 8.89 4.83 91 1012.7
20260507111717 10 171 0.0 0.0 0.00 8.89 4.83 92 1012.6
20260507111217 10 171 0.0 0.0 0.00 8.89 4.83 92 1012.6
20260507110718 10 171 0.0 0.0 0.00 8.89 4.83 91 1012.5
20260507110216 10 171 0.0 0.0 0.00 8.89 4.83 92 1012.6
20260507105717 10 171 0.0 0.0 0.00 8.89 4.83 91 1012.6
20260507105216 10 171 0.0 0.0 0.00 8.89 4.83 93 1012.4
20260507104716 10 171 0.0 0.0 0.00 8.89 4.83 94 1012.3
20260507104216 10 171 0.0 0.0 0.00 8.89 4.83 95 1012.1
20260507103719 10 171 0.0 0.0 0.00 8.89 4.83 94 1012.1
20260507103216 10 171 0.0 0.0 0.00 8.89 4.83 94 1012.1
20260507102717 10 171 0.0 0.0 0.00 8.89 4.83 95 1012.0
20260507102219 10 171 0.0 0.0 0.00 8.89 4.83 94 1012.0
20260507101721 10 306 0.0 0.0 0.00 8.89 4.83 94 1011.9
20260507101220 10 306 0.0 0.0 0.00 8.89 4.83 94 1011.7
20260507100719 10 306 0.0 0.0 0.00 8.89 4.83 94 1011.8
20260507100219 10 306 0.0 0.0 0.00 8.89 4.83 94 1011.7
20260507095719 10 306 0.0 0.0 0.00 8.89 4.83 95 1011.9
20260507095219 10 306 0.0 0.0 0.00 8.89 4.83 95 1011.8
20260507094719 10 306 0.0 0.0 0.00 8.89 4.83 95 1011.8
20260507094219 10 306 0.0 0.0 0.00 8.89 4.83 95 1011.7
20260507093719 10 306 0.0 0.0 0.00 8.89 4.83 94 1011.5
20260507093220 10 306 0.0 0.0 0.00 8.89 4.83 94 1011.6
20260507092713 10 306 0.0 0.0 0.00 8.89 4.83 94 1011.7
20260507092214 10 306 0.0 0.0 0.00 8.89 4.83 94 1011.7
20260507091714 10 306 0.0 0.0 0.00 8.89 4.83 94 1011.7
20260507091213 10 306 0.0 0.0 0.00 8.89 4.83 94 1011.8
20260507090713 10 306 0.0 0.0 0.00 8.89 4.83 94 1011.9
20260507090213 10 306 0.0 0.0 0.00 8.89 4.83 94 1011.7
20260507085713 11 306 0.0 0.0 0.00 8.89 4.83 94 1011.6
20260507085213 11 306 0.0 0.0 0.00 8.89 4.83 94 1011.5
20260507084714 11 306 0.0 0.0 0.25 8.89 4.83 94 1011.4
20260507084214 11 306 0.0 0.0 0.25 8.89 4.83 94 1011.7
20260507083715 11 306 0.0 0.0 0.25 8.89 4.83 94 1011.3
20260507083215 11 306 0.0 0.0 0.25 8.89 4.83 94 1011.4
20260507082714 11 306 0.0 0.0 0.25 8.89 4.83 93 1011.2
20260507082216 11 306 0.0 0.0 0.25 8.89 4.83 93 1010.9
20260507081717 11 306 0.0 0.0 0.25 8.89 4.83 93 1010.9
20260507081216 11 306 0.0 0.0 0.25 8.89 4.83 93 1010.9
20260507080717 11 306 0.0 0.0 0.25 8.89 4.83 93 1010.9
20260507080217 11 306 0.0 0.0 0.51 8.89 4.83 93 1010.8
20260507075716 11 306 0.0 0.0 0.51 8.89 4.83 93 1010.7
20260507075216 11 306 0.0 0.0 0.51 8.89 4.83 93 1010.7
20260507074717 11 306 0.0 1.6 0.51 8.64 4.57 93 1010.8
20260507074218 11 306 0.0 1.6 0.51 8.64 4.57 93 1010.7
20260507073716 11 306 0.0 0.0 0.51 8.64 4.57 94 1010.6
20260507073216 11 306 0.0 0.0 0.51 8.64 4.57 94 1010.7
20260507072716 11 306 0.0 0.0 0.51 8.64 4.57 93 1010.9
20260507072220 11 306 0.0 0.0 0.51 8.64 4.57 93 1010.8
20260507071720 11 306 0.0 0.0 0.51 8.64 4.57 93 1010.6
20260507071219 12 306 0.0 0.0 0.51 8.64 4.57 93 1010.6
20260507070720 12 306 0.0 0.0 0.51 8.64 4.57 93 1010.7
20260507070221 12 306 0.0 1.6 0.25 8.38 4.32 93 1010.8
20260507065719 12 306 0.0 1.6 0.25 8.38 4.32 93 1011.0
20260507065219 12 306 0.0 1.6 0.25 8.38 4.32 94 1011.1
20260507064719 12 306 0.0 1.6 0.00 8.13 4.06 94 1011.2
20260507064219 12 306 0.0 0.0 0.00 8.13 4.06 94 1011.0
20260507063719 12 306 0.0 0.0 0.00 8.13 4.06 94 1010.7
20260507063219 12 306 0.0 0.0 0.00 8.13 4.06 94 1010.7
20260507062717 12 306 0.0 0.0 0.00 8.13 4.06 94 1010.7
20260507062216 12 306 0.0 0.0 0.00 8.13 4.06 94 1011.0
20260507061718 12 306 0.0 0.0 0.25 8.13 4.06 94 1010.9
20260507061216 12 306 0.0 0.0 0.25 8.13 4.06 94 1010.9
20260507060718 12 306 0.0 0.0 0.51 8.13 4.06 94 1011.1
20260507060218 12 306 0.0 0.0 1.02 8.13 4.06 94 1011.0
20260507055717 12 306 0.0 0.0 1.27 8.13 4.06 94 1010.9
20260507055216 12 306 0.0 0.0 1.78 8.13 4.06 94 1010.9
20260507054716 12 306 0.0 0.0 2.03 8.13 4.06 94 1011.1
20260507054216 12 306 0.0 0.0 2.54 8.13 4.06 94 1011.1
20260507053716 12 306 0.0 0.0 3.05 8.13 4.06 94 1010.9
20260507053217 12 306 0.0 0.0 3.56 8.13 4.06 94 1011.2
20260507052717 12 306 0.0 0.0 3.56 8.13 4.06 94 1011.2
20260507052219 12 306 0.0 0.0 3.56 8.13 4.06 94 1011.2
20260507051720 12 306 0.0 0.0 3.30 7.87 3.81 93 1010.8
20260507051219 13 306 0.0 0.0 3.30 7.87 3.81 93 1010.8
20260507050720 13 306 0.0 0.0 3.30 7.62 3.56 93 1010.6
20260507050219 13 306 0.0 0.0 2.79 7.11 3.05 92 1010.9
20260507045720 13 306 0.0 0.0 2.79 6.86 2.79 92 1011.2
20260507045219 13 306 0.0 1.6 2.54 6.35 2.29 92 1011.2
20260507044720 13 306 0.0 1.6 2.29 6.10 2.03 92 1011.4
20260507044220 13 306 0.0 0.0 1.78 5.59 1.52 91 1011.5
20260507043720 13 306 0.0 0.0 1.27 5.08 1.02 91 1010.9
20260507043219 13 306 0.0 0.0 0.76 4.57 0.51 90 1011.0
20260507042723 13 306 0.0 0.0 0.76 4.57 0.51 90 1010.8
20260507042220 14 306 0.0 0.0 0.76 4.57 0.51 90 1010.9
20260507041722 14 306 0.0 0.0 0.76 4.57 0.51 89 1010.9
20260507041219 14 306 0.0 0.0 0.76 4.57 0.51 89 1011.0
20260507040727 15 306 0.0 0.0 0.51 4.32 0.25 88 1010.6
20260507040220 15 306 0.0 1.6 0.51 4.32 0.25 87 1010.6
20260507035720 15 306 0.0 1.6 0.25 4.06 0.00 86 1010.4
20260507035219 15 306 0.0 0.0 0.00 3.81 3.81 84 1010.4
20260507034719 15 306 0.0 0.0 0.00 3.81 3.81 84 1010.5
20260507034220 15 306 0.0 0.0 0.00 3.81 3.81 84 1010.4
20260507033720 15 306 0.0 0.0 0.00 3.81 3.81 84 1010.3
20260507033221 15 306 0.0 0.0 0.00 3.81 3.81 83 1010.1
20260507032716 15 306 0.0 0.0 0.00 3.81 3.81 83 1010.4
20260507032216 15 306 0.0 0.0 0.00 3.81 3.81 83 1010.4
20260507031717 15 306 0.0 0.0 0.00 3.81 3.81 83 1010.3
20260507031216 15 306 0.0 1.6 0.00 3.81 3.81 84 1010.3
20260507030717 16 306 0.0 3.2 0.00 3.81 3.81 84 1010.2
20260507030216 16 306 0.0 3.2 0.00 3.81 3.81 85 1010.2
20260507025718 16 306 0.0 0.0 0.00 3.81 3.81 84 1009.9
20260507025218 16 306 0.0 0.0 0.00 3.81 3.81 85 1009.9
20260507024717 16 306 0.0 0.0 0.00 3.81 3.81 84 1010.0
20260507024217 16 306 0.0 0.0 0.00 3.81 3.81 85 1010.0
20260507023717 16 306 0.0 0.0 0.00 3.81 3.81 85 1009.9
20260507023217 16 306 0.0 0.0 0.00 3.81 3.81 86 1009.9
20260507022717 16 306 0.0 1.6 0.00 3.81 3.81 86 1009.7
20260507022219 16 306 0.0 1.6 0.00 3.81 3.81 87 1009.6
20260507021719 16 306 0.0 0.0 0.00 3.81 3.81 86 1009.7
20260507021220 16 306 0.0 0.0 0.00 3.81 3.81 87 1009.6
20260507020721 17 306 0.0 3.2 0.00 3.81 3.81 88 1009.9
20260507020219 17 306 0.0 3.2 0.00 3.81 3.81 89 1009.7
20260507015720 17 306 0.0 3.2 0.00 3.81 3.81 89 1009.8
20260507015219 17 306 0.0 1.6 0.00 3.81 3.81 90 1009.7
20260507014720 17 306 0.0 0.0 0.00 3.81 3.81 91 1009.4
20260507014219 17 306 0.0 0.0 0.00 3.81 3.81 90 1009.4
20260507013722 17 306 0.0 0.0 0.00 3.81 3.81 90 1009.6
20260507013220 17 306 0.0 0.0 0.00 3.81 3.81 90 1009.7
20260507012717 17 306 0.0 0.0 0.00 3.81 3.81 90 1009.8
20260507012216 17 306 0.0 0.0 0.00 3.81 3.81 90 1009.8
20260507011719 17 306 0.0 0.0 0.00 3.81 3.81 89 1009.8
20260507011217 17 306 0.0 0.0 0.00 3.81 3.81 89 1009.9
20260507010717 17 306 0.0 0.0 0.00 3.81 3.81 88 1009.9
20260507010217 17 306 0.0 0.0 0.00 3.81 3.81 87 1009.9
20260507005716 18 306 0.0 0.0 0.00 3.81 3.81 87 1009.7
20260507005217 18 306 0.0 0.0 0.00 3.81 3.81 86 1009.5
20260507004717 18 306 0.0 4.8 0.00 3.81 3.81 85 1009.5
20260507004217 18 306 1.6 4.8 0.00 3.81 3.81 85 1009.7
20260507003718 18 306 0.0 4.8 0.00 3.81 3.81 86 1009.5
20260507003217 18 301 3.2 4.8 0.00 3.81 3.81 86 1009.2
20260507002717 18 288 0.0 0.0 0.00 3.81 3.81 86 1009.3
20260507002218 18 288 0.0 0.0 0.00 3.81 3.81 86 1009.0
20260507001717 18 288 0.0 0.0 0.00 3.81 3.81 85 1009.0
20260507001217 18 288 0.0 0.0 0.00 3.81 3.81 85 1008.9
20260507000717 18 288 0.0 0.0 0.00 3.81 3.81 85 1009.1
20260507000216 19 288 0.0 0.0 0.00 3.81 3.81 86 1009.0
20260506235716 19 288 0.0 0.0 0.00 3.81 3.81 86 1008.8
20260506235217 19 288 0.0 0.0 0.00 3.81 3.81 86 1008.9
20260506234717 19 288 0.0 0.0 0.00 3.81 3.81 85 1008.8
20260506234216 19 288 0.0 0.0 0.00 3.81 3.81 85 1008.4
20260506233718 19 288 0.0 0.0 0.00 3.81 3.81 85 1008.6
20260506233217 19 288 0.0 0.0 0.00 3.81 3.81 84 1008.6
20260506232717 19 288 0.0 0.0 0.00 3.81 3.81 83 1008.6
20260506232216 19 130 0.0 0.0 0.00 3.81 3.81 83 1008.4
20260506231716 19 130 0.0 0.0 0.00 3.81 3.81 82 1008.3
20260506231216 19 130 0.0 0.0 0.00 3.81 3.81 82 1008.4
20260506230716 20 130 0.0 0.0 0.00 3.81 3.81 82 1008.3
20260506230216 20 130 0.0 0.0 0.00 3.81 3.81 82 1008.4
20260506225717 20 130 0.0 0.0 0.00 3.81 3.81 82 1008.5
20260506225217 20 130 0.0 0.0 0.00 3.81 3.81 83 1008.4
20260506224717 20 130 0.0 0.0 0.00 3.81 3.81 83 1008.3
20260506224217 20 130 0.0 0.0 0.00 3.81 3.81 82 1008.3
20260506223716 20 130 0.0 0.0 0.00 3.81 3.81 81 1008.2
20260506223216 19 130 0.0 0.0 0.00 3.81 3.81 82 1008.1
20260506222717 19 130 0.0 0.0 0.00 3.81 3.81 82 1008.5
20260506222220 19 130 0.0 0.0 0.00 3.81 3.81 82 1008.5
20260506221723 20 130 0.0 0.0 0.00 3.81 3.81 82 1008.5
20260506221220 20 212 0.0 0.0 0.00 3.81 3.81 81 1008.4
20260506220722 20 213 0.0 0.0 0.00 3.81 3.81 80 1008.4
20260506220220 20 213 0.0 0.0 0.00 3.81 3.81 80 1008.4
20260506215720 20 213 0.0 0.0 0.00 3.81 3.81 80 1008.4
20260506215223 20 213 0.0 0.0 0.00 3.81 3.81 79 1008.3
20260506214721 20 213 0.0 0.0 0.00 3.81 3.81 80 1008.3
20260506214219 20 213 0.0 1.6 0.00 3.81 3.81 79 1008.2
20260506213720 20 213 0.0 1.6 0.00 3.81 3.81 79 1008.1
20260506213221 20 213 0.0 0.0 0.00 3.81 3.81 79 1008.1
20260506212722 20 213 0.0 0.0 0.00 3.81 3.81 78 1008.0
20260506212219 20 15 0.0 1.6 0.00 3.81 3.81 79 1008.0
20260506211721 20 15 0.0 1.6 0.00 3.81 3.81 80 1008.0
20260506211220 20 278 0.0 4.8 0.00 3.81 3.81 78 1008.0
20260506210720 20 278 0.0 4.8 0.00 3.81 3.81 78 1008.0
20260506210219 20 278 0.0 1.6 0.00 3.81 3.81 78 1007.9
20260506205720 20 300 0.0 3.2 0.00 3.81 3.81 78 1007.8
20260506205219 20 300 0.0 4.8 0.00 3.81 3.81 78 1007.9
20260506204721 20 253 1.6 4.8 0.00 3.81 3.81 79 1007.8
20260506204222 20 123 0.0 4.8 0.00 3.81 3.81 77 1007.6
20260506203720 20 311 0.0 4.8 0.00 3.81 3.81 80 1007.6
20260506203220 20 293 0.0 1.6 0.00 3.81 3.81 80 1007.8
20260506202720 20 293 0.0 1.6 0.00 3.81 3.81 79 1008.0
20260506202504 20 294 0.0 4.8 0.00 3.81 3.81 79 1007.9
20260506202004 20 221 0.0 4.8 0.00 3.81 3.81 79 1007.9
20260506201506 20 221 1.6 4.8 0.00 3.81 3.81 77 1007.8
20260506201004 20 207 0.0 4.8 0.00 3.81 3.81 77 1007.8
20260506200216 20 225 0.0 4.8 0.00 3.81 3.81 77 1007.8
20260506195716 20 231 0.0 4.8 0.00 3.81 3.81 77 1007.9
20260506195217 20 247 1.6 4.8 0.00 3.81 3.81 78 1007.9
20260506194718 20 299 0.0 4.8 0.00 3.81 3.81 78 1008.0
20260506194217 20 235 1.6 4.8 0.00 3.81 3.81 79 1008.0
20260506193717 20 271 0.0 4.8 0.00 3.81 3.81 81 1007.9
20260506193218 20 266 1.6 4.8 0.00 3.81 3.81 79 1007.9
20260506192718 20 228 0.0 4.8 0.00 3.81 3.81 79 1007.9
20260506192220 20 227 1.6 4.8 0.00 3.81 3.81 81 1008.0
20260506191720 19 203 0.0 4.8 0.00 3.81 3.81 82 1008.1
20260506191220 19 202 3.2 4.8 0.00 3.81 3.81 82 1008.1
20260506190720 19 201 0.0 4.8 0.00 3.81 3.81 81 1008.1
20260506190220 18 273 0.0 4.8 0.00 3.81 3.81 83 1008.2
20260506185720 18 341 0.0 4.8 0.00 3.81 3.81 83 1008.2
20260506185220 18 211 1.6 4.8 0.00 3.81 3.81 82 1008.4
20260506184722 18 196 0.0 8.0 0.00 3.81 3.81 83 1008.5
20260506184220 18 196 1.6 8.0 0.00 3.81 3.81 84 1008.5
20260506183720 18 222 0.0 0.0 0.00 3.81 3.81 84 1008.6
20260506183220 18 227 0.0 1.6 0.00 3.81 3.81 84 1008.5
20260506182717 18 227 0.0 1.6 0.00 3.81 3.81 84 1008.5
20260506182217 18 233 0.0 0.0 0.00 3.81 3.81 85 1008.5
20260506181717 17 200 0.0 4.8 0.00 3.81 3.81 85 1008.6
20260506181216 17 180 0.0 4.8 0.00 3.81 3.81 85 1008.6
20260506180718 17 222 0.0 4.8 0.00 3.81 3.81 86 1008.6
20260506180217 17 257 1.6 4.8 0.00 3.81 3.81 86 1008.7
20260506175718 17 257 3.2 4.8 0.00 3.81 3.81 87 1008.8
20260506175218 17 271 0.0 4.8 0.00 3.81 3.81 85 1008.8
20260506174717 17 232 3.2 4.8 0.00 3.81 3.81 87 1008.7
20260506174218 17 220 0.0 4.8 0.00 3.81 3.81 86 1008.7
20260506173717 17 198 1.6 4.8 0.00 3.81 3.81 86 1008.7
20260506173216 17 225 3.2 8.0 0.00 3.81 3.81 87 1008.7
20260506172716 17 205 1.6 8.0 0.00 3.81 3.81 88 1008.7
20260506172217 17 192 3.2 4.8 0.00 3.81 3.81 88 1008.7
20260506171718 17 206 1.6 8.0 0.00 3.81 3.81 88 1008.8
20260506171217 17 254 1.6 8.0 0.00 3.81 3.81 89 1008.8
20260506170717 16 198 1.6 4.8 0.00 3.81 3.81 89 1008.7
20260506170216 16 214 3.2 8.0 0.00 3.81 3.81 89 1008.8
20260506165719 16 186 3.2 8.0 0.00 3.81 3.81 89 1008.8
20260506165216 16 193 1.6 9.7 0.00 3.81 3.81 90 1008.9
20260506164717 16 222 0.0 9.7 0.00 3.81 3.81 90 1008.9
20260506164216 16 191 1.6 4.8 0.00 3.81 3.81 90 1009.0
20260506163717 16 209 1.6 4.8 0.25 3.81 3.81 91 1009.0
20260506163216 16 208 1.6 4.8 0.25 3.81 3.81 91 1008.8
20260506162718 16 190 3.2 8.0 0.25 3.81 3.81 91 1008.8
20260506162220 16 191 3.2 8.0 0.25 3.81 3.81 91 1008.9
20260506161720 16 194 1.6 8.0 0.25 3.81 3.81 91 1009.0
20260506161219 16 194 1.6 8.0 0.25 3.81 3.81 91 1009.0
20260506160720 16 195 1.6 8.0 0.25 3.81 3.81 92 1009.0
20260506160220 16 222 3.2 8.0 0.25 3.81 3.81 92 1009.3
20260506155721 16 223 0.0 4.8 0.25 3.81 3.81 92 1009.1
20260506155220 16 206 1.6 8.0 0.25 3.81 3.81 92 1009.1
20260506154720 15 183 3.2 8.0 0.51 3.81 3.81 93 1009.0
20260506154220 15 184 1.6 8.0 0.76 3.81 3.81 92 1009.1
20260506153720 15 193 3.2 8.0 0.51 3.56 3.56 93 1009.1
20260506153220 15 206 3.2 22.5 0.51 3.56 3.56 93 1009.2
20260506152717 15 186 4.8 22.5 0.51 3.56 3.56 93 1009.2
20260506152217 15 201 3.2 8.0 0.76 3.56 3.56 93 1009.4
20260506151717 15 205 3.2 9.7 0.76 3.56 3.56 93 1009.4
20260506151218 15 198 3.2 9.7 1.02 3.56 3.56 93 1009.4
20260506150717 15 194 3.2 8.0 1.02 3.56 3.56 93 1009.5
20260506150217 15 196 0.0 8.0 1.02 3.56 3.56 93 1009.8
20260506145716 15 182 3.2 4.8 1.27 3.56 3.56 93 1009.8
20260506145218 15 194 1.6 8.0 1.27 3.56 3.56 93 1009.9
20260506144720 15 200 3.2 8.0 1.02 3.30 3.30 93 1010.0
20260506144219 15 199 3.2 8.0 1.02 3.05 3.05 93 1010.0
20260506143718 15 199 3.2 9.7 1.02 3.05 3.05 93 1009.8
20260506143217 15 190 3.2 9.7 1.27 3.05 3.05 93 1010.0
20260506142717 15 183 3.2 8.0 1.52 3.05 3.05 93 1009.8
20260506142217 15 195 1.6 8.0 1.27 2.79 2.79 92 1009.7
20260506141717 15 196 4.8 8.0 1.27 2.79 2.79 92 1009.8
20260506141217 15 199 3.2 8.0 1.27 2.54 2.54 92 1009.6
20260506140717 15 193 1.6 8.0 1.27 2.54 2.54 92 1009.6
20260506140220 15 201 1.6 8.0 1.52 2.54 2.54 92 1009.6
20260506135717 15 200 0.0 8.0 1.52 2.29 2.29 92 1009.7
20260506135217 15 183 3.2 8.0 1.52 2.29 2.29 92 1009.8
20260506134717 15 174 1.6 4.8 1.52 2.29 2.29 92 1009.8
20260506134218 15 174 1.6 4.8 1.52 2.03 2.03 92 1010.0
20260506133718 15 198 0.0 3.2 1.52 2.03 2.03 92 1010.2
20260506133218 15 200 0.0 3.2 1.52 1.78 1.78 91 1010.4
20260506132715 15 200 0.0 4.8 1.27 1.52 1.52 91 1010.5
20260506132214 15 198 0.0 4.8 1.52 1.52 1.52 91 1010.4
20260506131715 16 199 0.0 1.6 1.52 1.52 1.52 91 1010.1
20260506131214 16 198 0.0 1.6 1.27 1.27 1.27 90 1010.0
20260506130714 16 198 0.0 0.0 1.27 1.27 1.27 90 1010.0
20260506130214 16 198 0.0 0.0 1.02 1.02 1.02 89 1009.9
20260506125714 16 198 0.0 1.6 0.76 0.76 0.76 89 1009.9
20260506125216 16 198 0.0 1.6 0.76 0.76 0.76 88 1009.7
20260506124717 16 137 0.0 0.0 0.76 0.76 0.76 88 1009.7
20260506124213 16 137 0.0 0.0 0.51 0.51 0.51 87 1009.8
20260506123715 16 230 0.0 0.0 0.51 0.51 0.51 86 1009.7
20260506123214 16 230 0.0 0.0 0.25 0.25 0.25 85 1010.0
20260506122715 16 230 0.0 0.0 0.25 0.25 0.25 84 1010.0
20260506122220 16 230 0.0 0.0 0.00 0.00 0.00 83 1010.1
20260506121718 16 230 0.0 0.0 0.00 0.00 0.00 82 1010.3
20260506121217 17 230 0.0 0.0 0.00 0.00 0.00 81 1010.3
20260506120717 17 230 0.0 0.0 0.00 0.00 0.00 80 1010.3
20260506120217 17 231 0.0 1.6 0.00 0.00 0.00 79 1010.3
20260506115717 17 231 0.0 1.6 0.00 0.00 0.00 77 1010.2